Wind_Speed
2 2 7 5 4 3 4 4 5 1 1 3 9 6 6 1 3 5 6 5 3 4 2 5 9 11 9 11 12 13 14 13 14 15 15 15 17 15 12 9 9 9 9 10
3 7 4 3 3 4 3 2 2 0 0 3 2 6 4 2 3 3 5 5 3 4 5 9 11 10 6 4 3 5 5 7 9 11 12 11 5 4 4 6 7 10 11 12
4 1 7 6 3 4 5 3 5 1 2 2 4 5 4 3 3 5 6 4 5 4 7 7 13 16 15 14 11 10 7 4 2 4 5 6 3 1 3 8 10 12 12 12
5 4 7 5 6 5 2 7 5 7 5 5 4 4 5 5 4 4 5 8 8 9 7 9 12 16 21 20 19 17 16 14 12 9 8 10 10 10 10 11 12 12 12 13
5 7 7 5 4 6 2 3 5 4 3 2 3 3 2 8 5 4 5 9 10 11 11 10 15 18 23 23 25 25 23 21 20 18 15 15 17 16 13 13 14 16 16 16
3 1 0 4 3 6 7 5 6 5 3 3 7 6 4 5 7 6 6 9 12 13 14 17 17 20 24 26 27 27 26 24 20 26 18 22 21 19 18 19 20 20 20 21
3 2 3 2 4 3 9 5 1 2 3 3 4 8 1 2 7 13 14 11 12 13 15 13 19 18 22 26 27 28 29 24 22 28 20 22 21 21 22 22 23 24 24 25
5 4 6 3 2 3 9 7 3 5 4 2 4 6 2 1 9 13 15 15 13 13 11 12 18 17 15 25 24 25 25 27 24 25 22 21 22 22 21 20 21 22 23 23
4 2 1 0 1 1 5 5 2 6 2 2 3 2 3 3 14 13 15 13 13 12 11 12 15 21 17 23 20 20 22 22 22 20 21 21 21 21 20 20 20 20 22 23
2 2 2 1 2 7 2 10 4 1 5 4 3 3 4 6 15 14 12 12 11 11 10 12 15 15 18 21 19 15 15 15 16 16 18 19 20 19 19 19 23 24 24 25
3 1 0 1 2 4 2 3 4 4 2 4 3 4 0 4 18 17 12 11 11 11 10 10 14 19 20 15 14 13 15 16 16 16 15 17 19 19 21 23 24 24 24 25
3 3 3 2 3 2 2 5 3 4 4 3 1 3 6 4 11 13 13 12 12 12 11 11 14 18 17 15 15 16 15 15 15 15 17 19 19 20 22 24 24 24 25 24
5 1 3 1 2 1 3 3 3 3 2 4 4 3 5 7 13 12 16 14 13 13 11 11 12 13 13 14 14 15 15 15 15 15 17 19 21 22 24 24 24 24 24 25
3 2 3 3 2 3 3 6 9 4 2 3 4 4 3 6 15 13 13 13 14 12 11 9 10 11 12 12 14 14 14 13 14 15 18 19 19 20 21 21 22 24 25 25
3 3 3 2 3 1 2 6 12 9 2 5 3 7 9 9 15 15 14 13 13 12 10 8 8 11 11 11 11 11 12 13 14 16 16 17 18 20 22 24 24 25 25 24
0 3 2 4 3 3 2 6 5 6 3 5 2 2 5 7 6 12 15 14 13 11 10 9 11 11 10 10 10 12 15 15 14 13 15 17 19 21 22 22 23 24 24 25
3 5 2 3 3 3 5 11 13 7 6 6 5 6 11 8 14 16 14 12 12 10 9 8 11 11 10 9 11 13 9 8 10 12 13 16 18 18 19 21 21 23 24 25
5 4 2 2 2 1 4 1 6 11 7 10 3 6 16 15 10 6 6 12 11 10 9 12 14 12 10 10 9 5 5 6 8 10 12 14 16 17 19 21 22 23 25 26
3 3 2 4 3 4 5 4 7 8 10 12 8 6 6 10 7 3 4 4 8 11 14 16 14 12 11 7 5 5 5 7 8 9 11 15 17 17 19 21 23 23 23 26
5 5 3 2 4 6 5 2 1 0 5 9 9 11 14 11 9 5 7 12 14 18 18 17 14 12 9 6 5 5 5 6 9 12 14 16 16 17 18 18 19 22 23 20
3 2 3 2 3 7 4 2 1 5 4 1 7 12 16 8 2 10 16 11 19 19 18 15 13 11 7 5 5 5 6 9 10 12 13 13 13 12 15 18 21 22 22 25
4 5 3 3 1 6 3 2 6 2 1 2 5 4 8 9 11 13 12 14 18 19 16 13 13 10 6 4 3 4 5 7 10 11 10 11 12 14 17 20 21 23 25 26
2 4 3 7 5 2 4 4 2 3 3 4 7 7 10 12 7 9 9 13 16 18 16 13 12 10 5 3 3 4 6 7 8 8 9 11 14 15 17 19 20 22 25 23
4 3 2 2 4 8 6 3 3 4 3 4 5 12 10 9 11 8 8 13 17 17 14 12 12 10 6 3 3 3 4 5 6 8 10 12 14 16 17 18 19 20 22 21
4 5 5 5 7 6 8 6 2 2 5 9 8 5 7 11 8 11 8 14 16 15 13 12 10 7 4 2 0 1 2 5 7 8 10 12 13 16 18 19 19 18 17 16
6 8 6 6 7 5 4 8 7 8 7 8 8 6 7 8 8 11 12 17 18 16 13 10 8 7 6 5 4 1 3 5 7 8 9 10 12 14 16 19 24 17 12 17
Wind_Direction
192 197 207 160 210 88 130 152 169 108 45 186 201 203 227 225 211 219 247 237 208 194 188 195 220 227 233 239 238 241 244 248 249 250 254 266 272 279 296 312 317 331 337 334
127 230 161 148 202 144 129 139 150 23 151 164 226 248 249 240 257 203 224 240 184 147 71 69 94 110 122 128 201 228 233 237 243 251 256 263 287 333 21 28 3 345 341 343
223 334 153 151 169 190 167 186 195 268 149 55 142 266 205 176 81 53 42 65 71 125 103 76 77 86 94 86 86 87 96 111 189 239 256 264 269 144 32 11 10 11 5 356
238 204 169 167 181 158 188 194 159 139 166 219 172 264 246 170 111 57 56 78 84 86 85 80 76 76 86 89 93 91 87 82 77 81 95 102 98 93 53 40 36 37 33 26
204 176 186 186 180 156 128 98 135 169 150 305 196 225 248 144 165 138 93 94 90 86 82 72 76 80 89 94 91 89 88 85 85 81 80 91 85 79 69 57 47 43 41 33
178 322 280 181 124 146 136 85 62 37 95 240 185 207 200 186 181 139 119 103 103 99 93 80 71 80 83 89 91 88 83 79 82 87 70 70 66 60 52 42 38 35 33 29
154 83 329 293 112 68 169 149 127 165 197 241 341 192 279 168 170 156 141 124 113 110 98 87 75 67 68 74 79 82 80 76 65 72 67 68 65 58 51 43 39 33 33 31
153 180 179 173 143 157 179 186 180 189 190 172 341 226 233 296 128 139 136 130 120 108 100 95 91 77 70 75 71 70 72 67 60 64 59 63 63 59 54 45 42 35 29 28
153 167 45 355 307 170 161 189 31 109 69 89 211 284 297 114 130 140 138 132 125 113 107 101 89 84 80 73 67 65 61 59 56 48 50 48 50 48 44 42 39 35 27 20
137 136 342 46 184 30 219 145 88 73 154 216 219 264 221 166 162 158 152 137 123 112 105 106 111 107 87 76 65 54 67 70 64 53 49 47 48 47 43 38 33 27 22 16
121 122 196 277 210 167 111 141 75 122 150 170 170 246 93 215 181 170 151 135 130 116 101 92 96 93 86 90 92 83 72 70 65 60 57 53 47 41 37 32 26 21 18 14
206 129 138 98 180 296 306 155 192 155 208 244 211 268 334 227 167 158 138 131 125 122 124 123 109 112 108 98 88 81 80 76 67 57 49 44 38 31 29 24 20 16 13 12
178 177 89 77 105 327 228 156 113 36 89 195 147 251 15 92 115 135 137 137 131 126 119 108 97 93 98 96 89 77 69 64 58 49 44 37 30 26 24 21 17 15 13 13
123 110 155 174 156 118 178 175 157 115 172 190 224 167 183 157 136 137 139 137 133 129 127 118 111 111 104 92 85 76 67 61 53 43 38 33 27 25 22 22 20 17 14 13
127 149 127 132 165 144 135 150 180 184 244 191 215 192 194 179 156 153 143 133 134 136 136 135 128 116 103 93 87 80 69 58 45 39 36 31 25 23 22 19 19 17 16 15
156 131 96 2 2 121 153 182 135 207 261 298 287 195 143 118 115 144 152 150 150 149 140 131 120 113 103 95 80 64 50 40 33 33 29 27 24 22 19 18 18 19 17 17
134 142 106 231 20 107 330 207 189 174 192 169 201 208 149 150 172 170 158 157 157 152 141 129 121 119 105 79 63 55 50 42 41 36 28 24 23 20 18 19 16 17 18 16
131 97 49 149 62 221 253 32 195 209 207 214 210 169 179 173 155 147 163 155 146 141 132 128 131 122 102 78 73 89 75 59 48 40 28 24 19 19 17 18 17 14 15 15
27 134 100 146 199 296 320 198 170 175 243 205 190 132 127 122 91 35 132 121 135 131 132 136 138 126 103 99 112 116 79 54 44 30 21 22 20 16 16 14 12 11 10 12
72 51 118 93 146 202 235 221 16 16 291 178 162 159 148 148 161 204 138 116 112 131 138 140 132 128 126 116 132 126 92 61 35 21 21 23 19 16 12 8 7 11 13 7
45 46 156 191 205 286 236 196 173 110 245 332 173 163 160 171 221 130 127 117 135 139 141 137 137 139 142 134 130 97 63 43 22 20 22 20 19 12 7 7 14 12 8 6
166 141 189 96 67 273 182 95 170 235 327 187 109 123 117 113 116 121 122 131 137 136 140 146 148 152 145 118 109 90 62 30 21 22 20 19 15 13 9 11 11 12 8 4
264 187 188 181 217 237 225 221 292 221 183 163 121 129 128 127 133 132 137 138 147 155 157 159 161 151 132 108 90 87 39 17 16 18 17 14 13 14 13 11 9 8 7 1
251 176 203 58 216 227 235 243 238 208 182 123 122 133 139 136 143 130 140 150 156 164 161 160 157 160 151 128 72 60 13 7 14 17 13 9 6 8 10 11 9 6 2 354
201 126 183 265 273 309 259 221 191 121 96 95 76 110 127 131 148 158 160 161 163 164 166 169 164 153 148 161 132 214 346 4 11 8 7 6 4 3 2 4 4 355 355 343
190 182 173 216 211 170 237 184 165 149 158 150 135 132 139 148 142 150 154 168 170 171 169 162 160 174 188 193 195 214 349 358 2 4 1 360 1 1 356 350 346 355 338 335
Height
821 824 820 821 820 826 827 831 835 838 838 836 838 834 828 830 831 832 833 835 837 838 839 840 843 846 849 852 853 854 856 859 861 863 864 865 867 867 869 870 870 870 869 867
823 823 820 819 823 827 830 832 835 843 839 840 840 836 830 830 829 827 830 832 838 838 842 843 843 844 847 850 852 853 854 855 857 860 861 864 865 866 867 868 868 867 867 866
824 821 816 823 828 830 831 834 836 835 841 842 842 838 834 828 830 834 834 834 836 840 844 847 846 846 848 849 851 852 853 854 855 857 859 860 863 865 866 866 866 866 865 864
822 816 819 823 828 827 833 829 830 840 839 839 836 840 835 829 833 839 840 838 841 844 848 848 849 850 851 852 852 853 854 856 857 858 858 859 861 862 866 867 867 866 864 864
819 819 821 822 820 820 829 828 831 835 840 839 841 844 826 831 838 842 844 842 844 846 849 854 852 853 854 855 855 856 857 859 858 862 863 862 862 863 866 867 867 867 866 864
820 819 818 815 817 818 828 835 839 845 844 846 835 834 830 834 828 842 846 846 846 848 852 855 858 858 857 860 859 861 862 864 867 854 871 864 865 866 866 867 866 867 867 865
821 823 821 821 822 823 826 831 842 846 846 835 846 835 821 822 828 832 843 847 848 852 851 856 859 864 863 864 865 866 861 871 873 859 872 866 867 866 867 868 867 867 864 863
816 826 824 822 818 820 824 824 831 833 845 844 850 829 823 824 824 834 838 843 848 852 855 859 861 864 874 866 869 871 872 868 874 869 876 873 869 868 868 870 867 868 868 864
814 816 825 825 822 819 825 827 836 844 876 854 838 830 826 832 832 838 842 845 850 854 859 864 867 865 873 868 874 873 872 874 873 881 875 877 871 870 874 873 872 870 869 866
823 824 829 823 820 823 820 829 836 843 847 848 840 840 826 837 834 839 844 849 853 857 863 867 870 872 871 871 871 872 874 877 879 880 878 877 875 875 877 876 872 871 869 866
825 822 831 827 823 822 828 827 833 839 839 839 845 828 825 827 824 833 841 848 854 858 862 865 866 867 869 876 879 881 879 877 879 881 883 882 879 880 878 875 875 872 868 865
822 825 822 825 835 832 827 824 824 821 843 847 832 825 832 828 828 833 844 851 856 859 864 869 870 873 876 879 881 881 883 883 884 884 883 880 880 881 876 875 873 871 869 866
821 829 834 829 833 838 831 827 834 823 831 835 834 825 835 833 833 841 846 854 858 863 868 873 876 877 879 880 882 883 883 882 882 883 881 879 880 878 876 875 875 874 870 866
817 833 828 819 818 825 824 829 832 829 832 830 827 831 839 839 838 845 852 854 857 862 868 873 878 881 883 883 882 882 884 883 882 883 881 880 879 877 877 875 874 872 871 866
819 839 835 833 832 825 823 818 824 821 821 823 815 825 827 835 838 844 848 854 858 862 868 875 880 882 884 886 885 886 885 884 883 881 879 880 879 877 875 873 870 870 868 866
822 833 837 843 826 822 823 833 824 827 831 823 819 816 824 835 845 847 846 851 857 862 867 874 878 882 884 883 882 881 880 881 882 883 882 878 876 874 875 873 871 867 867 861
821 836 846 850 834 832 845 826 824 826 825 814 819 813 827 838 839 840 844 849 856 862 866 870 875 879 880 880 877 877 881 884 884 884 883 881 877 876 875 872 871 866 859 858
827 831 835 860 844 847 812 816 815 811 813 812 811 819 817 820 831 841 843 846 855 861 865 869 874 877 878 878 879 884 885 885 884 883 882 878 878 875 873 870 866 863 856 853
829 828 854 844 858 832 814 817 820 815 809 810 811 822 827 832 838 847 846 849 854 861 866 869 872 874 874 879 883 884 884 884 882 882 880 874 872 871 871 867 864 859 855 851
833 833 832 879 846 849 806 809 812 807 819 806 810 819 827 830 836 841 847 851 858 863 865 868 869 872 876 880 882 882 882 882 880 877 873 869 870 870 871 869 863 857 851 851
849 845 833 886 868 839 814 812 813 828 807 805 807 813 821 825 826 835 846 854 858 861 865 867 870 873 877 879 879 878 877 877 876 873 870 871 871 873 870 865 858 854 852 849
839 851 864 876 855 824 813 812 812 808 810 809 812 815 823 830 834 838 845 852 857 861 865 867 869 872 875 875 876 876 875 875 873 871 872 873 872 869 865 860 856 853 849 847
854 831 839 834 824 813 813 810 810 811 810 810 813 819 823 831 837 841 848 853 857 860 863 865 868 871 873 873 874 874 873 873 872 872 871 870 868 865 862 858 854 851 848 846
835 832 838 829 814 815 809 807 808 809 807 809 813 816 822 829 837 842 848 851 854 858 862 865 868 869 871 871 871 870 871 871 870 869 868 866 865 862 860 857 854 851 849 846
832 832 838 833 813 813 807 807 806 808 810 813 817 820 824 828 835 838 843 849 854 858 861 863 865 866 866 867 867 868 868 867 867 867 866 865 863 861 857 855 853 851 850 849
820 815 816 814 797 796 795 798 803 808 811 813 816 823 825 827 833 839 844 848 851 855 858 860 861 862 863 864 867 867 865 865 865 865 864 862 860 857 855 852 848 848 846 843